AAL4619 KORF-KLGA

Flight info

Callsign AAL4619
Flight time 0h 56m
Altitude 29000
Route NUTIY1 HYTRA PROUD2
Aircraft E145/M-VGDW/C

Departure

Time 2026-04-24 12:59
Airport Norfolk International Airport (KORF)

Arrival

Time 2026-04-24 13:55
Airport LaGuardia Airport (KLGA)
Time Latitude Longitude Altitude Speed Heading
2026-04-24 12:41 36.89960 -76.20188 20 ft 0 kts 217°
2026-04-24 12:52 36.89959 -76.20189 20 ft 0 kts 217°
2026-04-24 12:53 36.89963 -76.20185 20 ft 2 kts 217°
2026-04-24 12:53 36.89971 -76.20178 20 ft 1 kts 216°
2026-04-24 12:53 36.89984 -76.20171 20 ft 2 kts 188°
2026-04-24 12:53 36.89998 -76.20171 19 ft 2 kts 161°
2026-04-24 12:54 36.90011 -76.20180 19 ft 2 kts 135°
2026-04-24 12:54 36.90020 -76.20195 19 ft 2 kts 109°
2026-04-24 12:54 36.90022 -76.20204 19 ft 0 kts 99°
2026-04-24 12:55 36.90021 -76.20199 19 ft 3 kts 99°
2026-04-24 12:56 36.90008 -76.20100 19 ft 17 kts 100°
2026-04-24 12:56 36.89983 -76.19959 22 ft 18 kts 103°
2026-04-24 12:56 36.89942 -76.19819 21 ft 18 kts 112°
2026-04-24 12:56 36.90011 -76.19685 20 ft 25 kts 38°
2026-04-24 12:57 36.90179 -76.19530 16 ft 31 kts 28°
2026-04-24 12:57 36.90348 -76.19395 13 ft 32 kts 37°
2026-04-24 12:57 36.90521 -76.19224 12 ft 31 kts 35°
2026-04-24 12:57 36.90611 -76.19080 10 ft 19 kts 103°
2026-04-24 12:58 36.90535 -76.18970 10 ft 12 kts 171°
2026-04-24 12:58 36.90509 -76.18977 10 ft 0 kts 212°
2026-04-24 12:58 36.90507 -76.18979 10 ft 6 kts 212°
2026-04-24 12:58 36.90223 -76.19250 13 ft 93 kts 218°
2026-04-24 12:59 36.89531 -76.19904 122 ft 145 kts 219°
2026-04-24 12:59 36.88668 -76.20628 575 ft 161 kts 213°
2026-04-24 12:59 36.87655 -76.21552 633 ft 195 kts 237°
2026-04-24 12:59 36.87114 -76.23247 845 ft 230 kts 264°
2026-04-24 13:00 36.87454 -76.25169 1686 ft 233 kts 303°
2026-04-24 13:00 36.88520 -76.26629 2627 ft 238 kts 315°
2026-04-24 13:00 36.89769 -76.28195 2801 ft 271 kts 315°
2026-04-24 13:00 36.91040 -76.29788 4257 ft 251 kts 315°
2026-04-24 13:01 36.92220 -76.31264 5485 ft 240 kts 313°
2026-04-24 13:01 36.93025 -76.33011 6340 ft 238 kts 294°
2026-04-24 13:01 36.93752 -76.34869 6962 ft 243 kts 299°
2026-04-24 13:01 36.94506 -76.36773 7556 ft 248 kts 288°
2026-04-24 13:02 36.94632 -76.38920 8198 ft 253 kts 272°
2026-04-24 13:02 36.94618 -76.41123 8830 ft 255 kts 272°
2026-04-24 13:02 36.94606 -76.43352 9438 ft 258 kts 272°
2026-04-24 13:02 36.94595 -76.45575 10021 ft 261 kts 272°
2026-04-24 13:03 36.94582 -76.47862 10537 ft 267 kts 272°
2026-04-24 13:03 36.94570 -76.50211 10964 ft 275 kts 272°
2026-04-24 13:03 36.94556 -76.52631 11400 ft 281 kts 271°
2026-04-24 13:03 36.94816 -76.55027 11785 ft 286 kts 291°
2026-04-24 13:04 36.95926 -76.57120 12184 ft 292 kts 311°
2026-04-24 13:04 36.97249 -76.59053 12624 ft 295 kts 309°
2026-04-24 13:04 36.98560 -76.61008 13048 ft 299 kts 309°
2026-04-24 13:04 36.99898 -76.63009 13468 ft 302 kts 309°
2026-04-24 13:05 37.01258 -76.65044 13884 ft 305 kts 308°
2026-04-24 13:05 37.02625 -76.67092 14294 ft 309 kts 309°
2026-04-24 13:05 37.04007 -76.69164 14689 ft 311 kts 309°
2026-04-24 13:05 37.05383 -76.71229 15069 ft 314 kts 309°
2026-04-24 13:06 37.06792 -76.73342 15444 ft 317 kts 309°
2026-04-24 13:06 37.08215 -76.75480 15801 ft 320 kts 309°
2026-04-24 13:06 37.09631 -76.77605 16159 ft 322 kts 309°
2026-04-24 13:06 37.11088 -76.79793 16401 ft 333 kts 309°
2026-04-24 13:07 37.12615 -76.82092 16522 ft 353 kts 309°
2026-04-24 13:07 37.14189 -76.84461 17159 ft 356 kts 309°
2026-04-24 13:07 37.15754 -76.86818 17834 ft 356 kts 309°
2026-04-24 13:07 37.17340 -76.89211 18557 ft 356 kts 309°
2026-04-24 13:08 37.18898 -76.91563 19345 ft 353 kts 309°
2026-04-24 13:08 37.20442 -76.93893 20122 ft 349 kts 309°
2026-04-24 13:08 37.21986 -76.96227 20815 ft 349 kts 309°
2026-04-24 13:09 37.25046 -77.00856 22311 ft 343 kts 309°
2026-04-24 13:09 37.26562 -77.03153 23009 ft 341 kts 309°
2026-04-24 13:09 37.28052 -77.05410 23724 ft 339 kts 309°
2026-04-24 13:09 37.29545 -77.07673 24531 ft 334 kts 309°
2026-04-24 13:10 37.31012 -77.09879 25225 ft 332 kts 311°
2026-04-24 13:10 37.32711 -77.11805 25930 ft 331 kts 322°
2026-04-24 13:10 37.34704 -77.13237 26616 ft 331 kts 333°
2026-04-24 13:10 37.36897 -77.14105 27269 ft 334 kts 345°
2026-04-24 13:11 37.39213 -77.14370 27964 ft 337 kts 356°
2026-04-24 13:11 37.41555 -77.14014 28610 ft 342 kts
2026-04-24 13:11 37.43848 -77.13067 28917 ft 357 kts 17°
2026-04-24 13:11 37.46077 -77.11527 28936 ft 379 kts 28°
2026-04-24 13:12 37.48178 -77.09377 28938 ft 399 kts 38°
2026-04-24 13:12 37.50083 -77.06795 28931 ft 411 kts 39°
2026-04-24 13:12 37.54710 -77.02582 28929 ft 415 kts 20°
2026-04-24 13:13 37.60260 -77.00519 28897 ft 421 kts
2026-04-24 13:13 37.63155 -76.99661 28906 ft 434 kts 12°
2026-04-24 13:13 37.66028 -76.98474 28914 ft 442 kts 13°
2026-04-24 13:14 37.71874 -76.95879 28923 ft 448 kts 14°
2026-04-24 13:14 37.77728 -76.93231 28927 ft 445 kts 14°
2026-04-24 13:15 37.83507 -76.90610 28928 ft 441 kts 14°
2026-04-24 13:15 37.89282 -76.87987 28927 ft 438 kts 14°
2026-04-24 13:16 37.94955 -76.85249 28925 ft 440 kts 20°
2026-04-24 13:16 38.00006 -76.80802 28896 ft 452 kts 37°
2026-04-24 13:17 38.04281 -76.74863 28869 ft 453 kts 41°
2026-04-24 13:17 38.08577 -76.69080 28896 ft 450 kts 40°
2026-04-24 13:18 38.12864 -76.63348 28921 ft 449 kts 40°
2026-04-24 13:18 38.17165 -76.57590 28909 ft 449 kts 40°
2026-04-24 13:19 38.21444 -76.51850 28909 ft 449 kts 40°
2026-04-24 13:19 38.25735 -76.46084 28918 ft 449 kts 40°
2026-04-24 13:20 38.30114 -76.40483 28904 ft 442 kts 33°
2026-04-24 13:20 38.34975 -76.35776 28899 ft 440 kts 31°
2026-04-24 13:21 38.39813 -76.31056 28911 ft 440 kts 31°
2026-04-24 13:21 38.44665 -76.26310 28898 ft 439 kts 31°
2026-04-24 13:22 38.49480 -76.21591 28916 ft 438 kts 31°
2026-04-24 13:22 38.54302 -76.16857 28891 ft 438 kts 31°
2026-04-24 13:23 38.59121 -76.12118 28891 ft 437 kts 31°
2026-04-24 13:23 38.63948 -76.07410 28908 ft 435 kts 30°
2026-04-24 13:24 38.68836 -76.02869 28889 ft 435 kts 30°
2026-04-24 13:24 38.73695 -75.98328 28887 ft 435 kts 30°
2026-04-24 13:25 38.78577 -75.93758 28901 ft 435 kts 30°
2026-04-24 13:25 38.83446 -75.89193 28892 ft 434 kts 29°
2026-04-24 13:26 38.88341 -75.84598 28315 ft 445 kts 30°
2026-04-24 13:26 38.90848 -75.82237 27814 ft 446 kts 30°
2026-04-24 13:26 38.93332 -75.79898 27313 ft 443 kts 30°
2026-04-24 13:27 38.95789 -75.77580 26814 ft 440 kts 30°
2026-04-24 13:27 38.98244 -75.75262 26272 ft 437 kts 30°
2026-04-24 13:27 39.00680 -75.72957 25712 ft 431 kts 30°
2026-04-24 13:27 39.03063 -75.70702 25144 ft 426 kts 30°
2026-04-24 13:28 39.05440 -75.68452 24577 ft 422 kts 30°
2026-04-24 13:28 39.07791 -75.66223 24032 ft 417 kts 30°
2026-04-24 13:28 39.10101 -75.64030 23547 ft 412 kts 30°
2026-04-24 13:28 39.12402 -75.61847 23075 ft 407 kts 30°
2026-04-24 13:29 39.14653 -75.59706 22608 ft 402 kts 30°
2026-04-24 13:29 39.16884 -75.57585 22169 ft 397 kts 30°
2026-04-24 13:29 39.19076 -75.55499 21767 ft 391 kts 30°
2026-04-24 13:29 39.21233 -75.53445 21368 ft 386 kts 30°
2026-04-24 13:30 39.23385 -75.51405 20975 ft 381 kts 29°
2026-04-24 13:30 39.25573 -75.49470 20581 ft 377 kts 28°
2026-04-24 13:30 39.27698 -75.47588 20254 ft 373 kts 28°
2026-04-24 13:30 39.29822 -75.45706 19956 ft 368 kts 28°
2026-04-24 13:31 39.31931 -75.43835 19697 ft 365 kts 28°
2026-04-24 13:31 39.34003 -75.41995 19468 ft 363 kts 28°
2026-04-24 13:31 39.36102 -75.40131 19238 ft 364 kts 28°
2026-04-24 13:31 39.38175 -75.38289 19004 ft 367 kts 28°
2026-04-24 13:32 39.40286 -75.36410 18756 ft 370 kts 28°
2026-04-24 13:32 39.42411 -75.34518 18524 ft 373 kts 28°
2026-04-24 13:32 39.44545 -75.32616 18271 ft 375 kts 29°
2026-04-24 13:32 39.46697 -75.30697 18069 ft 376 kts 29°
2026-04-24 13:33 39.48845 -75.28780 17888 ft 376 kts 29°
2026-04-24 13:33 39.51011 -75.26833 17713 ft 378 kts 30°
2026-04-24 13:33 39.53115 -75.24863 17550 ft 379 kts 30°
2026-04-24 13:33 39.55259 -75.22855 17376 ft 380 kts 30°
2026-04-24 13:34 39.57418 -75.20834 17197 ft 380 kts 30°
2026-04-24 13:34 39.59546 -75.18838 17012 ft 381 kts 30°
2026-04-24 13:34 39.61691 -75.16827 16829 ft 381 kts 30°
2026-04-24 13:34 39.63845 -75.14805 16660 ft 381 kts 30°
2026-04-24 13:35 39.65965 -75.12814 16473 ft 380 kts 30°
2026-04-24 13:35 39.68126 -75.10812 16298 ft 379 kts 28°
2026-04-24 13:35 39.70328 -75.08928 16111 ft 378 kts 28°
2026-04-24 13:35 39.72501 -75.07061 15937 ft 377 kts 28°
2026-04-24 13:36 39.74680 -75.05186 15762 ft 377 kts 27°
2026-04-24 13:36 39.76854 -75.03313 15586 ft 376 kts 27°
2026-04-24 13:36 39.79054 -75.01417 15398 ft 376 kts 27°
2026-04-24 13:36 39.81214 -74.99554 15237 ft 375 kts 27°
2026-04-24 13:37 39.83377 -74.97686 15066 ft 373 kts 27°
2026-04-24 13:37 39.85540 -74.95795 14883 ft 373 kts 28°
2026-04-24 13:37 39.87657 -74.93875 14699 ft 373 kts 28°
2026-04-24 13:37 39.89773 -74.91959 14508 ft 371 kts 28°
2026-04-24 13:38 39.91876 -74.90027 14325 ft 373 kts 31°
2026-04-24 13:38 39.93742 -74.87585 14143 ft 379 kts 41°
2026-04-24 13:38 39.95501 -74.85068 13967 ft 377 kts 41°
2026-04-24 13:38 39.97255 -74.82560 13791 ft 376 kts 41°
2026-04-24 13:39 39.99027 -74.80024 13613 ft 373 kts 41°
2026-04-24 13:39 40.00766 -74.77535 13308 ft 372 kts 41°
2026-04-24 13:39 40.02498 -74.75053 12985 ft 371 kts 41°
2026-04-24 13:39 40.04222 -74.72580 12670 ft 370 kts 40°
2026-04-24 13:40 40.05940 -74.70113 12354 ft 365 kts 40°
2026-04-24 13:40 40.07624 -74.67692 12024 ft 359 kts 40°
2026-04-24 13:40 40.09287 -74.65300 11697 ft 352 kts 39°
2026-04-24 13:40 40.10925 -74.62945 11369 ft 346 kts 39°
2026-04-24 13:41 40.12510 -74.60662 11066 ft 342 kts 39°
2026-04-24 13:41 40.14107 -74.58362 10748 ft 337 kts 39°
2026-04-24 13:41 40.15669 -74.56110 10440 ft 333 kts 39°
2026-04-24 13:41 40.17163 -74.53955 10134 ft 330 kts 39°
2026-04-24 13:42 40.18672 -74.51774 10016 ft 322 kts 39°
2026-04-24 13:42 40.20164 -74.49621 9967 ft 310 kts 38°
2026-04-24 13:42 40.21660 -74.47708 9986 ft 296 kts 34°
2026-04-24 13:42 40.23110 -74.45885 9996 ft 289 kts 34°
2026-04-24 13:43 40.24544 -74.44078 9969 ft 282 kts 33°
2026-04-24 13:43 40.25944 -74.42312 9973 ft 275 kts 33°
2026-04-24 13:43 40.27317 -74.40579 9789 ft 273 kts 33°
2026-04-24 13:43 40.28662 -74.38881 9509 ft 272 kts 33°
2026-04-24 13:44 40.30026 -74.37155 9204 ft 269 kts 33°
2026-04-24 13:44 40.31350 -74.35480 8892 ft 264 kts 33°
2026-04-24 13:44 40.32656 -74.33827 8631 ft 260 kts 34°
2026-04-24 13:44 40.33948 -74.32192 8322 ft 257 kts 34°
2026-04-24 13:45 40.35234 -74.30562 8019 ft 254 kts 34°
2026-04-24 13:45 40.36502 -74.28954 7682 ft 252 kts 34°
2026-04-24 13:45 40.37751 -74.27370 7367 ft 250 kts 34°
2026-04-24 13:45 40.38995 -74.25791 7031 ft 248 kts 35°
2026-04-24 13:46 40.40223 -74.24229 6716 ft 246 kts 35°
2026-04-24 13:46 40.41446 -74.22673 6413 ft 246 kts 35°
2026-04-24 13:46 40.42677 -74.21109 6115 ft 247 kts 36°
2026-04-24 13:46 40.43903 -74.19550 5822 ft 247 kts 36°
2026-04-24 13:47 40.45134 -74.17982 5532 ft 247 kts 37°
2026-04-24 13:47 40.46378 -74.16398 5224 ft 247 kts 38°
2026-04-24 13:47 40.47598 -74.14843 4930 ft 247 kts 38°
2026-04-24 13:47 40.48826 -74.13277 4646 ft 246 kts 38°
2026-04-24 13:48 40.50052 -74.11713 4356 ft 245 kts 39°
2026-04-24 13:48 40.51251 -74.10180 4138 ft 236 kts 39°
2026-04-24 13:48 40.52504 -74.08850 3905 ft 224 kts 29°
2026-04-24 13:48 40.53804 -74.07760 3609 ft 219 kts 29°
2026-04-24 13:49 40.55064 -74.06694 3304 ft 209 kts 30°
2026-04-24 13:49 40.56286 -74.05659 2990 ft 208 kts 30°
2026-04-24 13:49 40.57491 -74.04638 2688 ft 205 kts 30°
2026-04-24 13:49 40.58686 -74.03625 2383 ft 203 kts 31°
2026-04-24 13:50 40.59854 -74.02622 2088 ft 201 kts 32°
2026-04-24 13:50 40.61006 -74.01610 1827 ft 198 kts 32°
2026-04-24 13:50 40.62117 -74.00615 1789 ft 186 kts 32°
2026-04-24 13:50 40.63180 -73.99706 1788 ft 176 kts 31°
2026-04-24 13:51 40.64183 -73.98869 1782 ft 166 kts 30°
2026-04-24 13:51 40.65105 -73.98107 1792 ft 151 kts 30°
2026-04-24 13:51 40.65979 -73.97388 1777 ft 142 kts 30°
2026-04-24 13:51 40.66791 -73.96722 1778 ft 135 kts 30°
2026-04-24 13:52 40.67574 -73.96080 1787 ft 132 kts 30°
2026-04-24 13:52 40.68355 -73.95440 1795 ft 131 kts 29°
2026-04-24 13:52 40.69137 -73.94798 1791 ft 132 kts 30°
2026-04-24 13:52 40.69925 -73.94152 1699 ft 134 kts 30°
2026-04-24 13:53 40.70701 -73.93515 1531 ft 133 kts 30°
2026-04-24 13:53 40.71502 -73.92857 1352 ft 134 kts 31°
2026-04-24 13:53 40.72293 -73.92207 1167 ft 133 kts 31°
2026-04-24 13:53 40.73060 -73.91577 978 ft 128 kts 31°
2026-04-24 13:54 40.73811 -73.90960 797 ft 124 kts 31°
2026-04-24 13:54 40.74533 -73.90366 628 ft 123 kts 31°
2026-04-24 13:54 40.75262 -73.89767 456 ft 122 kts 32°
2026-04-24 13:54 40.75978 -73.89178 288 ft 122 kts 32°
2026-04-24 13:55 40.76691 -73.88591 119 ft 121 kts 32°
2026-04-24 13:55 40.77408 -73.88017 13 ft 115 kts 31°
2026-04-24 13:55 40.77935 -73.87575 9 ft 51 kts 31°
2026-04-24 13:55 40.78122 -73.87396 7 ft 25 kts 73°
2026-04-24 13:56 40.78043 -73.87332 8 ft 19 kts 209°
2026-04-24 13:56 40.77918 -73.87434 9 ft 20 kts 213°
2026-04-24 13:56 40.77781 -73.87540 9 ft 17 kts 198°
2026-04-24 13:56 40.77692 -73.87466 9 ft 14 kts 139°
2026-04-24 13:57 40.77618 -73.87422 9 ft 6 kts 138°
2026-04-24 13:57 40.77614 -73.87415 9 ft 0 kts 133°